Temp
19 19 19 19 19 19 19 18 17 16 16 17 17 17 18 18 18 18 18 18 18 18 17 17 16 16 16 16 16 16 16 16 16 16 16 15 15 14 14 15 15 15 16 16 16 16 16 15 15 14 15 15 15 15 15 16 16 16 16 15 15 15 15
19 19 19 19 19 19 18 18 17 16 16 17 17 17 18 18 17 18 17 17 17 17 17 17 16 16 16 16 16 16 16 16 16 16 16 15 15 15 14 14 15 15 15 15 15 16 16 16 15 15 15 14 15 15 15 15 16 16 15 15 15 15 15
19 19 18 18 18 18 18 18 18 17 16 17 17 17 18 17 17 17 17 17 17 17 17 17 16 16 15 16 16 16 16 16 16 16 16 16 15 15 15 15 14 14 14 14 14 15 16 16 16 15 15 14 15 15 15 15 15 15 15 15 15 15 15
19 18 18 18 18 18 18 18 18 17 17 17 17 17 18 18 17 17 17 17 17 17 17 17 16 16 15 15 16 16 15 16 16 16 16 16 15 15 15 15 14 15 15 15 15 15 16 16 16 15 15 15 15 15 15 15 15 15 15 15 15 15 15
18 18 18 18 18 18 18 18 18 18 17 17 17 17 17 17 17 17 17 17 17 17 17 16 16 16 16 15 15 15 15 15 15 16 16 15 15 15 15 15 15 15 16 16 16 16 16 16 16 15 15 15 15 15 15 15 15 15 15 15 15 15 15
18 18 18 18 18 18 18 18 18 18 17 17 17 17 17 17 17 17 17 16 16 16 16 16 15 15 15 15 15 15 15 14 15 15 15 15 15 15 15 15 15 15 15 16 17 17 16 17 16 15 15 15 15 15 15 15 15 15 15 15 15 15 15
18 18 18 18 17 17 17 17 17 17 17 17 17 16 16 16 16 16 16 16 16 16 16 16 15 15 15 15 15 15 15 15 14 15 15 15 15 15 15 15 15 15 15 15 16 16 16 16 16 15 15 15 15 15 14 15 15 15 15 15 15 15 15
17 17 17 17 17 17 17 17 17 17 17 16 16 16 16 16 16 16 15 15 15 15 15 15 15 15 15 15 15 15 15 15 14 14 15 15 15 15 15 15 15 15 15 15 15 16 17 17 17 16 15 15 15 15 15 14 14 14 14 15 15 15 15
17 17 17 17 17 17 17 16 16 16 16 16 16 16 16 16 16 16 15 15 14 14 14 14 14 14 14 15 15 14 15 15 14 15 15 15 15 15 15 15 15 14 15 15 15 16 16 16 17 17 16 15 15 15 15 15 14 14 15 14 14 14 15
16 16 16 16 16 16 16 16 16 16 16 16 16 16 16 16 16 15 15 14 14 14 14 14 14 14 14 14 14 14 14 14 15 15 15 15 15 15 15 15 14 14 15 15 15 16 15 15 16 18 17 17 16 15 15 15 15 14 14 15 15 14 15
16 16 16 16 16 16 16 16 16 16 16 16 16 16 15 15 15 15 14 14 14 14 14 14 14 14 14 14 14 14 14 14 15 15 15 15 15 15 15 15 15 14 14 15 15 15 14 15 16 17 17 17 17 16 15 15 15 14 14 15 15 15 15
16 16 16 16 16 15 15 15 15 16 16 16 15 15 15 15 15 15 15 14 14 14 14 14 14 14 14 14 14 14 14 14 15 15 15 15 15 15 15 15 15 15 15 15 15 15 14 15 16 17 17 17 17 17 16 15 15 15 15 15 15 16 15
15 15 15 15 15 15 15 15 15 15 15 15 15 15 15 15 15 15 14 14 14 14 14 14 14 14 14 14 14 14 14 15 15 15 15 15 15 15 15 15 15 15 15 15 15 15 15 15 16 17 17 17 17 17 16 16 15 15 15 15 15 16 16
15 15 15 15 15 15 15 14 14 14 14 14 15 15 15 15 15 14 14 14 14 14 14 14 14 14 14 14 14 15 14 15 15 15 15 15 15 15 15 15 15 15 15 15 15 15 15 15 16 15 15 15 15 15 15 15 15 14 15 16 16 16 16
15 14 14 14 14 14 14 14 14 14 14 14 14 14 14 14 14 14 14 15 15 15 14 14 14 14 14 14 14 15 14 15 15 15 15 15 15 15 15 15 15 15 15 15 15 15 14 14 15 14 14 15 15 15 15 15 15 14 15 15 16 16 16
14 14 14 14 13 13 14 14 14 14 14 14 14 14 14 14 14 14 14 14 15 15 15 15 14 14 14 14 14 15 15 15 15 15 14 14 14 15 14 15 15 15 15 15 14 15 14 14 14 14 14 15 15 15 15 15 15 15 14 15 15 15 15
13 13 13 13 13 13 13 13 14 14 14 14 14 14 14 14 14 14 14 14 15 15 15 15 15 14 14 14 15 15 15 14 14 15 14 14 14 14 14 15 15 15 15 14 14 14 14 15 15 14 14 15 15 15 15 15 15 15 15 14 15 15 14
12 12 12 12 12 12 12 13 13 13 13 13 13 13 14 14 14 14 14 14 15 15 15 14 15 15 14 14 14 15 15 14 14 14 14 14 14 15 15 15 15 15 15 14 15 14 14 15 15 15 15 15 15 15 15 15 15 14 14 15 14 14 14
12 12 12 11 11 11 12 12 12 12 12 13 13 13 13 13 13 14 14 14 14 14 14 14 14 15 14 14 14 14 14 14 14 14 14 15 15 15 15 15 15 15 15 15 15 15 14 15 16 15 15 15 15 15 15 15 14 14 14 15 15 14 14
11 11 11 11 11 11 11 11 11 11 12 12 12 12 13 13 13 13 14 14 14 14 14 14 14 14 14 14 14 14 14 14 14 14 14 15 15 15 15 15 15 15 15 15 15 15 14 15 15 15 15 15 14 15 14 14 14 14 14 14 14 14 14
11 11 10 10 10 10 10 10 10 11 12 12 11 11 12 13 13 14 14 13 14 14 14 14 14 14 14 14 14 14 14 14 14 14 14 15 15 15 15 15 15 15 15 15 15 15 15 15 15 15 15 15 15 14 14 13 13 14 14 14 14 14 14
11 10 10 10 10 10 10 10 10 10 11 11 10 11 11 12 12 13 13 13 13 13 14 14 14 14 14 14 14 14 14 14 14 14 14 14 15 15 15 15 14 14 14 15 15 16 16 15 15 14 15 15 15 15 14 14 13 14 14 14 14 14 14
10 10 10 9 9 9 9 9 9 9 9 9 9 10 10 11 11 12 11 11 12 12 13 13 14 14 14 14 14 14 14 14 14 14 14 14 14 14 14 14 14 14 14 14 14 15 16 15 14 14 15 15 15 15 14 14 14 14 14 14 14 14 14
10 10 9 9 8 8 8 8 9 9 9 9 9 10 10 10 10 10 10 10 11 11 12 13 14 14 14 14 14 14 14 14 14 14 14 14 14 14 14 14 14 14 14 14 14 14 15 15 15 14 14 15 15 15 14 14 14 14 14 14 14 14 14
10 9 9 9 8 8 8 8 8 8 9 9 9 10 10 9 10 10 10 10 10 11 12 13 13 14 14 14 14 14 13 13 13 13 13 14 13 14 14 14 13 14 15 14 14 14 14 14 14 13 13 14 15 14 14 14 14 14 14 14 14 14 14
9 9 9 8 8 8 8 8 8 8 8 8 9 9 9 9 9 10 10 10 10 11 12 13 13 14 14 14 14 14 13 13 13 13 13 13 13 13 13 13 13 14 14 14 14 14 14 14 14 13 13 13 14 13 13 14 15 14 14 14 14 14 14
9 9 9 8 8 8 7 7 7 7 7 8 8 8 8 8 9 9 9 9 10 10 10 11 12 13 13 13 13 13 12 12 12 12 12 12 12 12 12 12 13 13 13 14 13 13 14 14 13 13 13 13 13 13 13 14 15 15 14 14 14 14 14
9 9 8 8 8 7 7 7 6 6 6 7 7 7 7 8 8 8 8 9 9 9 9 10 11 12 12 12 12 12 12 11 11 11 11 11 11 12 12 12 12 12 12 12 12 12 13 13 12 12 13 13 13 14 14 14 15 15 14 14 14 14 14
8 8 8 8 8 7 7 6 6 6 6 6 6 6 7 7 7 7 8 9 9 8 8 9 10 11 12 12 12 12 11 11 10 10 10 9 10 10 11 11 11 11 11 11 11 12 12 12 12 12 12 12 12 13 13 13 13 14 14 14 14 14 14
8 8 8 8 7 7 7 7 6 6 6 6 6 5 6 6 6 7 8 8 8 7 7 8 9 11 11 12 12 12 11 11 10 9 9 8 8 9 10 11 11 11 11 11 11 11 11 12 12 11 10 10 11 11 10 10 11 12 13 13 14 14 14
8 8 7 7 7 7 7 6 6 6 6 6 5 5 5 6 6 6 7 7 7 7 7 7 8 9 10 11 11 11 10 11 10 9 9 8 8 8 9 10 10 10 10 10 11 11 11 11 11 10 9 9 9 9 9 9 10 10 11 11 12 13 13
7 7 7 7 7 7 6 6 6 6 6 5 5 5 5 5 5 5 6 6 7 7 7 7 7 7 8 9 9 8 8 9 8 7 8 8 8 8 8 8 9 9 10 10 11 11 11 11 10 9 9 9 9 8 8 9 10 10 10 11 11 12 12
7 7 7 7 7 6 6 6 5 5 5 5 5 5 5 5 5 5 5 6 6 6 7 7 7 8 8 8 7 7 7 6 5 5 6 7 7 7 7 8 8 9 10 10 10 11 11 11 10 10 9 9 8 8 8 9 9 9 10 10 10 10 10
7 7 7 7 6 6 6 5 5 5 5 5 5 5 5 4 4 4 4 5 5 5 6 6 7 8 8 8 8 8 7 6 5 5 6 6 5 5 6 7 7 8 10 10 10 10 10 10 10 9 9 8 8 9 9 9 9 9 9 9 9 9 9
6 6 6 6 6 6 5 5 5 5 5 5 5 5 4 4 4 4 4 4 4 5 5 6 7 7 8 8 8 8 8 7 7 7 7 6 5 5 6 6 6 7 9 9 9 10 9 10 10 9 8 8 9 9 9 9 9 9 8 8 8 8 8
6 6 6 6 6 5 5 5 5 5 5 5 4 4 4 4 4 4 4 4 4 4 5 5 6 6 7 7 7 7 7 7 8 8 7 6 6 6 6 6 7 7 8 8 8 8 8 9 9 8 8 9 9 9 9 9 8 8 8 8 8 7 7
6 6 6 6 5 5 5 5 5 5 5 5 4 4 4 4 4 4 4 4 4 5 5 5 5 5 6 6 6 6 6 6 7 7 6 6 5 6 6 6 7 7 8 8 8 8 7 7 7 8 8 8 8 8 8 8 7 7 7 7 7 7 7
Height
806 806 806 805 804 803 803 805 805 805 807 808 807 806 804 801 801 801 801 800 800 800 799 799 798 798 798 798 799 799 800 800 799 799 799 801 804 806 807 808 809 809 809 809 810 812 816 818 819 820 821 822 823 825 826 827 827 828 830 832 833 833 834
807 806 806 805 804 803 803 804 804 804 805 807 806 804 801 800 800 800 800 799 798 797 797 796 795 796 796 796 796 796 797 798 798 797 797 798 800 802 804 805 807 808 809 809 809 810 811 813 816 817 818 820 822 823 824 825 826 827 828 830 831 832 832
807 806 805 804 803 803 802 803 804 803 804 804 804 802 800 800 799 798 798 797 796 795 794 792 792 793 793 793 792 793 794 795 796 796 796 796 797 799 800 802 804 805 806 807 808 809 808 809 811 813 814 817 819 820 821 822 824 825 827 828 830 831 831
806 805 804 803 802 802 801 801 802 802 802 802 801 800 799 799 798 797 796 795 794 792 791 791 791 791 790 790 790 790 791 793 793 794 794 794 795 796 797 798 800 801 800 802 803 804 805 806 808 810 812 813 816 817 819 820 822 823 825 827 828 829 829
805 804 803 802 801 800 800 800 800 800 800 800 800 799 798 797 796 795 794 793 791 790 789 789 789 788 788 788 788 788 789 790 791 792 792 791 792 793 794 795 796 797 796 797 799 800 801 802 804 807 809 811 814 816 817 818 820 822 823 825 826 827 828
805 804 803 802 801 800 799 799 798 798 798 798 798 797 796 795 794 793 792 791 789 788 787 787 786 785 785 786 786 786 787 788 790 790 789 789 790 790 791 792 794 795 795 795 796 797 799 801 802 804 807 809 812 813 815 817 818 820 822 823 824 826 826
804 803 802 801 801 800 798 798 797 797 797 796 796 795 795 794 792 791 790 789 787 786 785 784 783 782 783 783 783 783 783 785 788 788 788 787 787 788 789 790 791 792 793 793 794 795 797 799 800 801 805 808 810 812 813 815 816 818 819 821 822 824 825
804 803 802 801 800 799 798 797 796 796 795 795 794 793 793 792 790 789 788 786 785 784 783 781 780 780 779 779 780 779 778 779 782 784 785 785 785 785 786 788 789 790 791 792 792 793 794 795 797 798 801 806 809 811 811 813 815 816 817 819 821 822 823
803 802 801 801 800 799 798 797 796 795 794 794 793 792 791 790 788 787 785 784 783 782 780 779 778 777 777 777 777 777 776 776 776 778 780 781 781 782 783 785 787 788 790 790 790 791 791 792 794 796 797 800 804 808 810 812 813 814 816 817 819 820 822
803 802 801 800 799 798 797 796 795 794 793 792 791 790 789 788 786 784 783 782 781 780 778 777 776 775 775 775 775 775 775 775 775 774 776 777 777 779 781 782 783 785 787 789 789 789 790 792 793 794 795 796 798 802 807 809 810 811 813 815 817 818 820
803 802 801 800 799 798 797 795 794 792 791 790 790 789 788 786 784 782 781 780 779 778 776 775 774 774 773 773 772 773 772 772 772 772 772 773 773 775 777 778 780 782 785 787 788 788 789 790 792 792 794 795 795 797 800 804 807 808 810 813 814 815 818
803 802 801 800 799 798 796 795 793 791 790 789 788 787 786 784 782 781 780 778 777 775 774 773 772 772 771 771 771 770 771 770 770 770 771 771 771 772 774 775 776 779 782 784 786 787 788 789 790 791 793 794 795 795 797 800 804 806 807 809 811 813 815
803 802 801 800 799 797 796 794 793 791 790 788 787 786 784 782 781 779 778 777 775 773 771 770 770 769 769 769 769 769 769 769 769 769 769 770 770 770 771 772 774 777 779 782 785 786 788 789 789 790 792 794 794 795 796 797 800 803 805 807 809 811 814
803 802 801 799 798 797 796 794 793 791 789 788 786 784 783 781 779 778 776 774 773 771 769 768 768 768 767 767 767 767 767 767 767 767 768 769 769 769 770 771 773 775 778 781 784 786 787 788 789 790 793 795 796 797 797 797 799 802 804 806 808 810 813
802 801 800 799 798 797 796 795 793 791 789 787 785 783 781 779 777 776 775 773 771 769 767 766 766 766 765 765 765 765 765 765 765 766 766 767 768 768 769 770 772 774 777 780 783 784 786 787 789 791 793 793 794 796 796 797 800 802 804 806 807 809 812
802 801 800 799 798 797 796 794 792 790 788 786 784 782 780 778 776 775 773 771 769 767 766 765 765 765 764 764 763 763 763 763 763 764 765 766 767 768 769 770 771 773 776 779 782 783 785 787 788 789 790 791 792 793 795 796 798 801 803 805 807 808 810
802 801 800 799 798 797 796 794 792 790 788 786 784 781 779 777 775 773 772 770 768 766 765 764 764 763 763 763 763 762 762 762 762 763 764 765 767 768 768 769 770 773 775 778 780 782 784 785 786 786 787 789 790 792 794 796 798 801 802 804 805 806 808
803 802 801 799 798 797 795 794 792 790 787 785 783 781 778 776 774 772 770 768 767 766 764 764 763 763 763 763 763 762 762 762 762 763 764 765 766 767 767 767 770 772 775 776 778 781 783 784 784 785 785 787 788 790 792 794 798 801 803 803 804 806 808
803 802 801 799 798 797 795 794 792 789 787 785 783 780 778 776 773 771 770 768 767 766 764 764 764 763 764 764 764 763 763 763 763 764 764 764 764 765 765 767 769 772 774 775 776 778 780 781 783 783 783 785 787 788 789 791 795 799 801 802 803 806 808
804 803 801 800 798 797 795 793 791 789 787 785 783 780 778 776 773 771 770 768 767 766 765 764 764 764 764 764 764 764 764 764 764 764 764 764 764 765 766 767 769 771 773 774 775 776 778 779 781 782 782 784 785 787 789 791 793 795 797 800 802 804 806
805 803 802 800 799 797 795 793 791 789 787 785 783 781 778 776 774 772 770 769 767 766 765 764 764 764 765 765 765 765 765 765 764 764 764 764 764 765 766 767 768 769 771 773 773 774 775 777 779 780 781 782 784 785 788 790 792 792 794 797 801 802 804
805 804 802 800 799 797 795 794 791 789 787 785 783 781 779 777 775 773 771 769 768 767 766 765 764 765 766 766 766 767 766 765 765 765 764 764 765 765 766 767 768 769 771 772 773 772 773 775 777 778 779 779 781 782 785 788 790 791 793 796 799 801 802
806 805 803 801 800 798 796 794 792 790 788 786 784 782 780 778 776 774 772 771 770 768 767 766 765 766 767 767 767 768 767 766 766 765 764 765 765 765 766 767 767 768 770 772 774 773 772 773 776 778 778 778 778 779 781 784 787 789 791 793 796 798 800
807 806 804 803 801 799 798 796 794 792 790 788 786 783 781 779 777 776 774 773 772 770 769 767 767 767 768 768 768 768 768 768 767 766 765 766 766 766 766 767 767 767 769 772 774 774 773 773 775 778 780 780 780 780 780 781 783 786 787 790 792 794 796
808 807 806 805 803 801 800 797 796 794 791 790 787 785 783 781 779 778 776 775 774 772 771 770 769 769 770 770 770 770 769 769 768 768 767 768 768 768 768 767 767 768 769 770 773 773 773 773 775 778 781 781 781 781 780 780 782 784 785 787 790 791 793
809 808 807 806 805 803 802 800 798 796 794 792 789 787 785 783 782 780 778 777 776 774 773 772 771 772 772 772 772 771 771 771 771 770 770 770 770 771 770 769 769 769 769 770 772 773 773 773 775 778 780 781 781 781 782 783 784 785 785 787 788 789 792
810 810 809 808 807 805 804 802 801 799 796 794 791 789 788 786 784 782 780 780 779 777 776 775 774 774 774 774 773 773 774 774 773 773 773 772 772 772 772 772 771 771 771 771 771 773 774 774 775 777 779 781 781 781 782 784 784 784 786 788 789 790 792
811 811 811 810 809 808 807 805 803 802 799 797 795 793 791 789 787 785 784 783 782 781 781 779 778 778 778 777 776 776 777 777 776 776 775 775 774 774 774 774 774 773 772 772 772 773 774 775 776 777 778 779 780 781 782 784 784 784 786 788 791 792 793
813 813 812 812 811 810 809 808 806 805 802 800 798 796 794 792 790 789 788 786 785 785 785 784 782 782 781 781 780 779 779 780 779 779 778 778 777 776 776 776 776 776 775 775 775 775 776 776 777 778 780 780 781 782 784 785 785 785 786 788 791 794 795
814 815 814 813 813 813 812 811 810 808 805 803 801 800 798 796 794 793 791 791 790 790 789 788 787 785 785 784 783 782 782 782 782 782 781 782 781 779 779 779 778 779 778 778 778 779 779 778 778 780 782 783 783 784 786 787 787 787 788 789 791 794 796
816 816 816 816 816 815 815 814 813 811 809 807 805 804 802 800 799 797 796 796 795 794 794 794 792 789 788 787 785 785 785 783 783 784 785 785 785 783 782 782 782 782 783 782 782 782 783 782 782 783 784 785 786 788 791 792 790 790 791 792 793 795 796
817 817 818 818 818 818 817 817 816 814 812 810 809 808 806 804 803 803 802 801 800 799 799 799 797 794 792 790 788 788 787 785 785 788 789 789 788 787 787 787 787 787 787 787 786 786 787 787 787 788 789 789 790 794 797 797 795 795 795 796 797 798 799
819 819 820 820 820 820 820 819 818 817 815 814 813 811 810 809 808 808 807 806 804 804 804 803 802 801 798 796 794 792 790 790 791 792 792 792 793 793 793 794 793 793 791 791 791 791 791 791 792 793 793 793 795 798 800 800 799 799 799 800 801 802 802
821 821 822 822 822 822 822 822 821 819 819 818 816 815 815 813 813 813 812 811 810 810 809 808 807 806 804 803 801 798 796 797 798 797 796 797 798 799 799 799 799 798 797 796 796 795 796 796 796 796 797 797 799 801 801 801 802 802 802 803 804 805 805
823 823 824 824 823 824 824 824 823 823 822 821 819 819 819 818 817 817 817 816 816 815 815 814 812 811 809 808 806 804 803 804 805 802 801 802 804 804 805 805 805 804 802 800 800 800 800 801 800 801 802 803 804 804 804 804 805 805 805 806 807 808 809
825 825 826 826 825 826 826 826 826 825 825 824 823 823 823 822 821 820 820 820 820 820 819 818 817 816 814 813 812 811 810 810 809 807 805 807 809 810 810 810 810 808 806 804 804 804 804 804 804 806 807 808 808 808 808 808 808 808 808 809 810 811 813
828 828 828 828 828 828 828 828 828 828 827 826 826 826 827 826 825 824 824 824 824 824 823 822 822 821 819 818 817 816 815 814 813 812 811 812 814 814 814 814 814 812 810 809 809 809 809 808 809 810 810 810 810 810 810 811 812 812 812 813 814 816 817
Wind_Speed
12 14 14 14 16 18 18 16 13 10 9 13 16 17 19 20 21 22 23 24 24 25 25 25 26 26 26 26 25 26 25 25 25 25 24 21 20 23 26 26 21 15 12 13 12 10 5 4 8 13 18 23 25 27 27 26 25 24 23 24 22 20 20
11 12 11 11 11 12 13 12 10 7 5 7 11 15 18 20 21 23 24 25 27 27 27 27 27 26 27 27 26 26 26 27 26 25 24 23 22 23 25 26 24 19 15 13 13 11 7 6 6 6 11 17 20 25 26 25 25 25 24 24 24 23 21
11 11 10 10 10 10 11 11 10 9 8 7 8 12 16 18 20 22 24 25 26 28 29 29 28 27 27 28 28 27 26 27 27 25 25 24 25 25 26 26 24 20 15 11 12 12 9 8 6 6 11 13 12 18 24 25 24 24 24 24 24 24 22
11 11 12 12 13 12 12 11 10 9 9 9 8 10 13 15 17 20 22 24 26 27 29 29 28 28 28 29 28 26 26 27 26 26 26 26 26 26 27 27 27 26 20 14 17 18 11 7 6 6 11 15 13 15 21 24 24 23 23 24 24 24 23
9 9 10 11 12 12 12 11 10 9 9 9 8 10 13 14 16 18 20 22 24 27 28 27 26 27 28 29 28 25 25 25 26 26 27 26 25 25 26 28 29 30 27 23 24 25 19 15 12 6 9 15 12 12 18 22 22 23 23 24 25 25 24
4 5 7 9 11 12 13 12 12 12 11 10 10 11 13 15 17 18 19 21 23 25 27 27 27 27 27 28 27 26 25 24 25 26 26 26 25 25 25 27 28 28 28 28 27 26 23 20 16 9 10 15 11 9 15 20 20 20 22 24 24 24 25
4 5 7 9 10 12 13 13 13 12 11 10 10 12 14 15 17 18 19 21 22 23 25 27 28 28 26 26 26 26 26 23 23 25 26 25 24 24 24 25 26 27 28 28 27 27 25 22 19 13 11 11 10 9 11 17 19 16 18 23 24 23 24
4 5 6 7 9 10 11 11 10 10 10 10 11 13 15 16 18 19 20 21 21 22 23 25 27 28 26 26 25 25 26 24 22 24 24 24 23 23 24 24 24 25 27 28 28 27 27 26 24 22 18 9 6 7 7 11 15 16 18 21 23 23 22
4 5 6 8 9 10 11 10 10 10 10 11 12 14 16 18 19 20 20 21 21 21 22 24 26 27 26 25 24 24 26 25 21 22 23 23 24 23 24 24 23 24 26 28 29 28 29 28 26 26 26 17 8 5 4 6 8 12 18 21 20 22 22
5 6 7 9 10 10 10 11 12 12 12 13 14 15 17 18 19 20 20 21 21 21 22 22 23 24 23 24 24 24 25 25 23 22 22 23 24 24 23 23 23 25 26 26 29 29 27 26 25 25 27 26 18 9 4 5 5 8 16 20 20 21 23
5 7 8 10 10 10 11 12 13 13 13 14 15 16 17 17 18 18 19 20 21 21 21 20 20 21 21 22 24 23 24 25 24 23 23 23 23 23 23 22 21 24 25 25 27 28 26 24 24 24 26 28 26 17 10 7 7 11 17 20 21 23 24
6 7 9 9 10 10 11 12 13 13 13 14 15 16 16 16 17 17 17 18 19 19 19 18 19 20 20 22 23 24 24 24 23 24 24 23 23 23 23 22 21 23 25 25 25 26 26 23 22 24 25 28 29 26 21 12 6 11 20 21 20 23 26
7 7 8 9 9 10 11 12 13 13 14 14 14 14 15 15 16 16 16 17 17 17 17 16 17 17 18 20 22 23 23 22 22 24 24 23 23 23 23 22 22 23 23 23 24 24 24 23 23 23 24 27 27 25 25 19 8 8 19 23 22 22 25
9 10 10 10 10 10 10 11 12 13 13 13 13 13 14 15 15 16 16 16 16 16 16 15 15 15 16 18 19 20 21 22 23 24 23 22 23 24 24 23 22 22 21 21 22 22 21 23 23 21 20 24 22 17 18 17 10 7 13 21 23 22 24
11 12 12 13 13 11 11 11 12 13 13 13 13 13 14 15 16 15 14 15 15 14 14 14 13 14 15 17 19 20 21 23 23 23 22 22 23 23 23 23 21 20 20 21 22 21 20 21 21 20 21 24 23 17 16 16 13 10 10 17 23 23 25
13 13 13 14 13 12 12 12 13 13 14 14 14 13 14 15 15 14 13 14 15 14 13 13 12 12 14 15 17 20 22 24 24 22 22 23 23 21 20 20 20 19 18 20 20 20 21 23 23 24 24 25 25 22 19 17 16 14 12 15 22 25 27
14 14 14 14 14 13 13 12 12 13 14 16 15 14 14 14 13 13 13 14 13 12 12 12 12 12 13 14 16 19 22 23 23 22 22 21 19 18 18 18 19 20 19 20 18 16 19 23 25 24 22 23 23 22 19 16 17 18 16 16 20 25 29
16 16 16 15 15 14 13 12 13 13 15 16 16 15 16 15 15 14 14 12 10 10 12 11 11 11 12 12 13 18 20 20 21 19 18 17 16 15 17 17 18 18 18 20 20 18 18 21 22 21 20 22 21 21 22 19 17 19 18 17 18 20 24
17 17 17 16 15 14 13 13 14 15 15 15 15 16 16 15 15 15 14 12 10 10 12 11 9 10 10 9 10 14 17 17 16 13 11 14 16 15 17 17 16 16 17 20 23 22 21 21 21 20 21 23 22 22 24 23 22 23 20 17 18 19 20
17 17 17 17 16 15 15 15 16 16 15 15 15 16 16 15 15 15 14 13 11 9 9 9 8 7 7 7 8 9 9 10 10 9 11 15 17 16 16 16 16 17 18 20 20 22 23 23 22 22 22 23 23 23 25 26 26 26 22 19 21 23 24
17 17 17 17 16 16 16 16 16 15 14 14 15 16 16 15 14 14 13 13 11 8 6 7 7 5 5 5 7 6 4 5 7 8 11 14 15 16 15 15 16 17 17 18 18 21 23 24 24 23 22 22 22 22 23 24 24 24 22 21 23 24 24
18 18 18 17 17 17 17 17 16 15 14 14 14 14 14 15 15 14 14 13 13 10 7 7 6 4 4 4 5 5 4 5 6 7 8 10 10 12 12 13 14 13 14 16 19 20 21 23 24 24 24 24 25 24 22 22 23 24 23 22 22 21 21
17 17 18 18 19 19 19 19 19 19 18 17 16 15 15 15 15 15 16 17 16 14 11 10 7 5 4 5 4 3 3 4 4 5 7 8 7 9 10 11 11 9 9 13 16 17 17 18 20 23 24 27 29 29 27 26 26 28 27 24 24 24 21
17 17 18 19 20 21 21 21 22 22 22 21 20 18 17 17 16 16 18 19 19 17 15 14 12 8 7 7 4 3 4 3 1 4 6 6 5 7 8 8 7 5 6 9 12 14 14 14 17 20 23 25 26 27 29 29 28 30 29 26 25 26 24
18 19 19 19 20 21 21 22 23 23 24 24 23 21 20 20 19 20 21 22 22 19 16 17 17 15 13 12 11 10 11 10 7 3 1 2 2 3 5 6 6 5 5 8 12 14 13 13 16 18 20 22 21 21 24 26 26 28 28 26 25 25 24
19 20 19 19 20 21 22 23 22 23 24 25 26 26 25 24 24 24 26 27 26 22 20 21 20 17 15 14 12 13 14 13 12 10 7 4 3 3 2 2 4 4 5 8 12 14 13 14 15 15 16 18 18 17 17 17 21 25 26 24 25 26 24
19 19 19 19 21 22 23 23 22 22 24 26 28 29 29 29 29 29 30 31 29 26 25 25 22 19 18 17 16 16 17 16 15 14 12 10 7 7 6 4 3 4 4 7 10 13 14 14 14 12 12 13 14 14 11 7 11 19 21 20 23 24 21
20 19 19 20 22 22 23 24 23 24 25 26 27 28 30 32 33 33 33 33 32 30 29 28 25 22 21 20 21 22 22 21 20 18 17 14 11 10 11 11 11 11 9 8 8 10 12 13 13 12 13 14 13 13 12 9 7 9 12 13 15 16 14
20 20 20 21 22 22 23 23 24 24 26 28 29 30 32 33 34 34 34 33 33 32 30 28 28 27 24 23 24 26 26 26 26 25 23 21 18 15 13 15 15 14 12 11 9 10 13 14 16 17 18 18 18 16 15 16 16 15 17 18 17 15 15
20 20 21 22 22 21 21 22 22 24 27 30 31 32 33 35 35 35 35 33 32 32 30 28 29 30 29 28 28 30 31 31 33 33 31 29 27 22 18 17 17 16 15 14 13 13 15 18 21 24 26 27 27 26 24 22 21 19 19 20 19 16 16
21 21 22 23 22 21 21 21 22 24 27 30 31 31 33 37 38 38 37 35 33 32 30 27 27 30 31 31 32 33 34 36 37 37 36 35 34 31 25 21 21 21 20 19 18 18 20 23 26 29 30 31 31 28 24 23 24 24 22 22 20 17 17
21 22 22 23 22 22 21 21 22 25 28 30 31 32 35 38 39 39 39 39 37 36 34 29 26 27 29 31 32 32 34 37 38 37 37 38 38 37 33 30 28 26 24 23 23 24 26 28 29 29 29 30 29 24 21 21 24 25 24 23 21 18 18
22 22 23 23 23 22 22 22 23 26 27 29 31 34 35 37 38 38 39 41 40 39 38 36 32 30 30 31 33 34 36 37 35 36 38 39 39 40 38 36 34 30 28 27 27 28 29 29 29 28 29 30 28 25 24 26 27 27 27 27 25 22 22
23 23 23 24 24 23 22 22 24 26 27 28 31 33 33 34 36 36 37 39 41 40 40 39 37 36 35 35 35 37 39 37 35 37 40 40 38 38 38 38 36 33 30 30 30 30 29 28 29 30 30 30 28 26 27 28 28 28 28 28 27 26 24
24 24 23 24 24 23 23 23 24 25 27 28 30 31 31 32 33 34 35 36 37 38 39 40 39 38 37 37 37 37 38 36 35 37 40 39 37 37 37 36 36 34 32 32 31 31 30 29 29 30 28 27 26 25 27 28 27 28 28 28 28 27 26
25 25 25 25 26 25 25 26 26 26 27 29 30 29 28 29 31 33 33 33 34 34 36 37 38 38 37 37 37 37 37 36 35 37 38 36 34 33 32 32 32 32 33 33 32 32 32 31 30 28 26 24 24 23 24 25 26 27 29 29 29 28 27
25 25 25 26 27 26 26 27 28 27 28 29 30 29 27 28 30 31 32 32 32 32 32 33 34 34 34 35 35 36 36 36 36 36 37 35 33 32 30 29 28 28 29 30 31 31 32 32 31 29 27 25 25 24 24 25 26 27 28 28 27 26 24
Wind_Direction
277 287 294 297 297 294 293 292 290 284 272 267 264 260 260 259 259 260 260 262 263 262 262 260 260 261 260 259 257 256 253 247 236 225 223 217 208 217 223 223 225 220 197 185 185 176 162 198 213 215 213 209 208 207 207 207 209 211 211 213 215 213 208
280 289 297 305 307 302 300 300 301 303 300 283 267 260 263 263 262 262 261 262 264 264 264 262 261 260 259 259 257 256 254 250 244 235 228 221 215 216 216 216 220 221 214 208 205 197 181 173 187 202 201 201 208 209 209 209 210 211 212 215 216 215 211
274 288 298 307 314 314 311 315 317 310 304 305 289 271 270 267 265 267 267 265 266 266 265 264 262 260 258 258 257 254 255 253 247 241 236 232 231 226 218 213 213 212 209 210 216 211 191 179 186 184 180 184 197 204 206 210 210 209 212 215 216 214 211
279 294 302 307 314 317 315 319 331 328 316 318 310 288 282 280 276 275 275 271 269 268 267 267 267 265 261 260 258 255 255 254 251 247 242 239 238 231 223 216 213 210 204 198 202 200 188 175 177 180 185 188 193 200 203 207 209 209 211 214 215 213 210
289 302 308 313 317 320 319 320 330 332 324 319 312 299 298 298 292 287 284 278 274 272 271 271 270 267 265 263 261 257 253 251 252 250 244 238 234 229 223 219 218 217 211 207 203 197 192 187 181 175 181 185 193 204 203 205 209 209 210 212 212 213 210
312 315 319 321 318 317 317 317 321 326 323 314 307 303 303 303 298 294 290 283 279 278 275 273 270 268 266 267 267 265 260 254 251 248 243 240 235 230 227 223 221 222 217 213 208 202 199 192 184 177 177 183 186 191 196 201 206 209 210 211 211 212 211
356 344 338 331 328 326 323 321 320 322 319 312 305 303 305 304 300 297 293 287 282 280 277 273 271 267 264 264 266 264 262 258 251 247 245 244 240 235 232 226 222 224 222 216 210 207 203 193 186 177 167 179 184 171 179 194 199 202 207 210 211 211 210
14 360 353 347 344 341 338 335 330 323 316 311 307 308 311 308 303 299 294 289 285 282 279 276 272 268 261 257 255 254 254 250 242 242 243 242 240 236 231 228 225 227 227 220 213 213 209 201 197 187 170 163 176 168 167 187 194 200 204 208 210 211 209
17 4 355 348 346 345 342 339 333 326 319 315 313 313 313 308 305 302 297 293 291 289 285 279 273 269 262 255 251 249 250 245 236 235 238 237 237 235 232 231 230 230 232 227 220 218 216 208 205 196 182 171 166 162 166 176 189 204 205 204 206 209 208
24 15 2 351 346 342 339 336 331 326 321 319 318 315 311 308 306 305 303 301 300 298 292 282 275 270 264 259 255 251 247 242 236 233 234 233 233 233 231 231 232 233 236 234 226 222 219 211 205 202 195 187 179 165 165 184 186 196 200 200 199 201 205
24 8 355 347 344 339 337 335 331 324 321 321 318 315 312 310 310 312 313 309 303 300 294 284 276 271 264 260 258 253 243 235 232 233 233 232 230 228 228 229 231 234 235 236 233 227 221 214 208 206 204 198 190 179 172 180 193 194 193 196 198 197 198
11 350 342 343 344 345 345 344 337 328 323 324 322 321 319 315 315 319 319 314 305 301 297 287 281 276 267 260 257 254 247 236 230 232 234 233 228 224 224 225 225 228 231 235 238 233 225 218 213 209 207 204 198 192 184 175 183 199 192 190 195 197 196
23 9 5 5 3 1 357 351 345 338 335 333 329 327 325 320 320 322 319 315 310 307 303 294 286 281 273 265 260 256 251 242 233 230 229 229 225 220 219 221 220 224 229 231 236 236 227 222 219 213 211 209 203 198 191 181 170 188 192 192 192 194 197
36 31 29 27 26 19 6 356 350 345 346 346 340 334 331 330 330 327 321 317 316 315 313 306 296 284 274 268 264 258 249 241 234 228 225 223 220 219 218 219 220 222 224 225 230 230 223 224 225 216 213 209 200 195 192 184 169 158 180 191 189 192 199
42 41 41 41 38 29 16 7 0 358 0 0 356 349 343 341 338 333 328 324 322 323 323 318 306 287 273 265 261 256 246 237 232 228 226 223 220 219 219 220 221 223 224 226 229 229 223 223 221 212 211 208 197 192 192 184 175 157 159 181 184 186 193
51 49 45 42 35 26 19 13 7 8 11 8 4 356 350 346 342 336 331 327 323 324 327 325 313 290 273 263 258 254 243 232 229 229 228 224 221 219 218 220 220 220 224 225 221 221 219 216 213 208 208 207 201 197 192 184 179 169 159 172 178 179 184
52 47 41 34 26 19 16 10 7 11 11 8 4 359 356 353 349 342 333 326 325 327 331 328 317 297 276 265 257 251 242 231 227 228 225 221 220 219 219 224 223 217 219 220 213 209 212 215 212 204 204 207 203 194 188 185 184 179 174 175 179 182 183
49 43 36 27 21 18 16 12 14 18 16 11 9 8 6 0 355 351 342 335 335 341 342 335 321 303 281 271 266 257 248 236 224 220 217 215 219 226 227 229 228 221 219 226 226 217 213 217 214 203 203 207 202 192 189 190 189 187 185 179 177 183 184
47 40 32 29 29 27 26 26 28 30 26 21 20 20 17 9 1 357 353 351 354 356 357 352 335 310 286 277 275 263 253 241 228 214 209 210 212 221 227 228 231 227 219 223 227 219 211 216 217 212 207 200 194 193 192 190 192 195 192 184 179 183 185
47 39 33 35 39 36 35 36 35 35 33 30 30 29 25 19 13 9 4 0 358 357 1 359 345 323 299 279 267 257 247 239 232 219 215 216 213 216 222 224 229 230 220 217 222 218 213 212 212 212 210 198 190 190 187 184 187 190 187 183 183 183 184
49 43 40 40 39 37 37 38 37 36 34 33 32 30 28 24 21 19 16 10 1 354 348 344 339 337 333 303 273 266 254 235 226 218 222 226 224 225 228 227 229 228 219 214 218 218 216 213 206 202 202 198 193 190 186 183 182 183 183 184 185 184 180
51 47 44 40 37 39 39 39 40 39 35 34 33 32 31 27 24 22 22 21 15 9 359 345 335 340 356 334 292 280 270 255 245 238 241 240 236 238 240 239 240 235 222 219 222 222 221 217 208 198 194 195 195 190 187 185 181 179 181 183 184 183 177
54 48 44 42 42 43 42 42 45 44 42 41 38 36 34 30 26 24 21 22 22 25 28 22 8 349 352 349 313 289 293 288 276 266 261 255 255 259 255 249 248 241 229 229 228 225 224 221 216 212 207 200 194 189 185 184 183 181 182 183 183 182 178
57 50 48 47 47 47 47 46 47 48 47 45 42 40 37 32 29 27 24 24 26 32 42 47 47 48 53 62 77 85 68 60 314 271 275 269 260 260 262 264 265 254 240 233 225 223 227 225 221 223 219 209 201 196 191 184 182 183 183 183 183 182 182
57 55 54 53 51 50 50 48 48 49 48 47 45 42 40 37 35 34 34 35 35 40 56 70 75 80 85 93 100 96 87 89 92 88 325 297 292 279 282 284 277 261 238 224 221 221 220 216 215 214 211 209 208 207 200 191 189 188 184 182 183 182 185
60 60 59 57 54 53 52 49 47 47 48 50 49 47 46 46 46 46 46 44 43 52 73 85 85 86 89 96 102 97 92 93 90 84 81 75 62 48 15 306 274 256 234 222 221 217 207 204 207 200 193 193 196 198 198 198 203 200 188 183 183 182 188
66 65 64 60 58 56 53 51 48 47 48 50 49 48 48 50 53 54 54 53 54 59 72 82 85 85 87 90 93 91 88 86 83 78 74 74 75 80 82 83 93 112 157 197 206 204 199 199 197 184 172 173 178 183 183 185 211 209 199 194 191 186 192
71 69 68 66 63 59 56 53 50 48 48 49 48 47 50 53 56 57 58 61 64 64 68 77 82 82 83 86 87 86 82 78 75 72 68 67 69 81 95 100 100 105 119 139 162 171 175 178 172 158 152 151 154 165 160 126 122 164 171 174 177 169 167
75 71 71 71 67 62 58 54 51 51 51 51 51 51 52 54 56 58 61 65 66 65 67 75 81 82 82 83 84 83 81 76 72 69 64 60 61 71 90 100 95 93 102 111 121 134 143 146 139 129 124 123 123 124 120 109 109 120 124 128 135 132 123
78 75 75 73 70 66 62 57 54 54 55 55 54 53 54 55 56 59 62 64 65 64 64 71 80 84 83 83 84 83 81 77 72 68 64 60 60 64 77 90 89 83 88 97 102 110 121 125 120 111 103 100 99 97 92 94 103 109 115 123 131 134 129
81 80 80 78 76 72 68 65 62 60 61 60 58 57 58 60 60 60 61 63 64 64 62 65 77 84 85 86 86 84 82 78 73 69 66 63 62 63 69 78 82 83 85 91 97 101 107 109 105 100 95 92 90 85 82 87 95 96 99 107 117 125 129
84 85 85 83 83 80 76 73 70 69 68 65 64 62 62 63 61 60 61 63 64 64 62 60 66 75 82 86 86 83 81 79 75 70 68 67 65 64 67 71 76 82 86 90 94 98 101 101 97 93 94 92 88 83 83 89 92 93 92 93 96 101 101
88 88 88 87 87 85 82 79 77 75 73 71 69 67 65 65 63 60 61 63 64 64 65 64 63 66 71 76 78 79 78 76 73 71 70 69 67 66 66 68 71 78 85 88 91 93 96 97 96 94 93 91 88 88 90 89 88 88 86 84 83 82 81
92 91 92 92 91 87 84 82 80 78 77 75 73 71 67 67 66 63 62 63 63 63 65 67 68 68 68 69 71 73 74 73 72 73 72 68 66 65 65 67 69 75 81 84 84 85 85 87 89 89 89 90 92 93 91 87 85 83 81 79 77 75 73
94 95 96 96 93 90 87 85 83 81 79 77 75 74 71 69 69 67 64 63 63 63 64 66 69 69 69 69 70 71 73 74 74 75 73 70 68 66 66 67 69 74 80 82 82 82 83 84 84 83 85 91 94 93 89 86 83 81 77 75 73 70 68
94 94 96 96 93 90 88 87 84 82 80 79 76 74 71 71 71 69 66 64 63 63 64 65 68 69 69 70 71 72 74 75 74 74 75 75 73 72 70 68 68 71 76 78 79 80 81 83 84 84 86 89 89 89 88 84 81 80 79 75 71 68 65
94 94 95 95 93 89 87 86 84 81 79 78 76 73 70 70 70 68 65 63 62 63 64 65 68 70 71 72 73 73 74 75 75 76 77 77 77 76 75 72 70 70 71 73 74 74 73 74 78 81 83 84 86 86 84 81 79 79 78 74 71 69 67